Weather History for Trenton, NJ

Change the Weather History Date:

Sunday, May 12, 2013

  Actual Average Record
Temperature  
Mean Temperature 56 °F 60 °F  
Max Temperature 65 °F 71 °F 93 °F (1911)
Min Temperature 47 °F 49 °F 33 °F (1907)
Degree Days  
Heating Degree Days 9 6  
Month to date heating degree days 78 92  
Since 1 July heating degree days 4852 5060  
Cooling Degree Days 0 1  
Month to date cooling degree days 6 12  
Year to date cooling degree days 20 20  
Growing Degree Days 8 (Base 50)    
Moisture  
Dew Point 39 °F    
Average Humidity 56    
Maximum Humidity 86    
Minimum Humidity 26    
Precipitation  
Precipitation 0.01 in 0.11 in 1.32 in (1943)
Month to date precipitation 1.95 1.28  
Year to date precipitation 11.43 14.43  
Sea Level Pressure  
Sea Level Pressure 29.77 in    
Wind  
Wind Speed 10 mph (NW)    
Max Wind Speed 23 mph    
Max Gust Speed 32 mph    
Visibility 10 miles    
Events Rain    
T = Trace of Precipitation, MM = Missing Value Source: NWS Daily Summary

Daily Weather History Graph

Daily Weather History Graph

Search for Another Location

Airport:

Trip Planner

Search our weather history database for the weather conditions in past years. The results will help you decide how hot, cold, wet, or windy it might be!

Date:

Astronomy

May. 12, 2013 Rise Set
Actual Time 5:46 AM EDT 8:05 PM EDT
Civil Twilight 5:15 AM EDT 8:36 PM EDT
Nautical Twilight 4:37 AM EDT 9:14 PM EDT
Astronomical Twilight 3:56 AM EDT 9:56 PM EDT
Moon 7:39 AM EDT (5/12) 10:31 PM EDT (5/12)
Length of Visible Light 15h 20m
Length of Day
14h 19m
Waxing Crescent, 6% of the Moon is Illuminated
May 12
Waxing Crescent
May 18
First Quarter
May 25
Full
May 31
Last Quarter
Jun 8
New

Hourly Weather History & Observations

Time (EDT) Temp. Dew Point Humidity Pressure Visibility Wind Dir Wind Speed Gust Speed Precip Events Conditions
12:53 AM 61.0 °F 57.0 °F 87% 29.71 in 9.0 mi West 3.5 mph - 0.01 in Rain Light Rain
1:53 AM 60.1 °F 55.0 °F 83% 29.69 in 10.0 mi West 4.6 mph - 0.00 in   Overcast
2:53 AM 60.1 °F 54.0 °F 80% 29.68 in 10.0 mi WNW 3.5 mph - 0.00 in   Overcast
3:53 AM 59.0 °F 54.0 °F 83% 29.69 in 9.0 mi West 4.6 mph - 0.01 in   Overcast
4:53 AM 57.9 °F 53.1 °F 84% 29.70 in 9.0 mi WNW 3.5 mph - N/A   Overcast
5:53 AM 57.9 °F 52.0 °F 81% 29.71 in 9.0 mi NW 3.5 mph - N/A   Overcast
6:53 AM 57.0 °F 48.9 °F 74% 29.73 in 10.0 mi NW 6.9 mph - 0.00 in   Overcast
7:53 AM 57.9 °F 46.9 °F 67% 29.71 in 10.0 mi NNW 5.8 mph - N/A   Clear
8:53 AM 60.1 °F 46.0 °F 60% 29.73 in 10.0 mi NW 8.1 mph - N/A   Clear
9:53 AM 63.0 °F 48.0 °F 58% 29.72 in 10.0 mi NW 12.7 mph 19.6 mph N/A   Partly Cloudy
10:53 AM 64.0 °F 45.0 °F 50% 29.72 in 10.0 mi West 13.8 mph 23.0 mph N/A   Partly Cloudy
11:53 AM 64.0 °F 37.9 °F 38% 29.72 in 10.0 mi NW 15.0 mph 29.9 mph N/A   Partly Cloudy
12:53 PM 64.0 °F 34.0 °F 33% 29.73 in 10.0 mi WNW 16.1 mph 26.5 mph N/A   Clear
1:53 PM 63.0 °F 28.0 °F 27% 29.75 in 10.0 mi NW 16.1 mph 25.3 mph N/A   Clear
2:53 PM 63.0 °F 30.0 °F 29% 29.74 in 10.0 mi NW 12.7 mph 19.6 mph N/A   Clear
3:53 PM 62.1 °F 30.0 °F 30% 29.75 in 10.0 mi NW 18.4 mph 27.6 mph N/A   Clear
4:53 PM 61.0 °F 28.9 °F 30% 29.78 in 10.0 mi WNW 18.4 mph 27.6 mph N/A   Clear
5:53 PM 60.1 °F 26.1 °F 27% 29.80 in 10.0 mi WNW 16.1 mph 27.6 mph N/A   Clear
6:53 PM 59.0 °F 25.0 °F 27% 29.82 in 10.0 mi WNW 10.4 mph 26.5 mph N/A   Clear
7:53 PM 57.0 °F 24.1 °F 28% 29.85 in 10.0 mi NW 9.2 mph 23.0 mph N/A   Clear
8:53 PM 55.0 °F 25.0 °F 31% 29.87 in 10.0 mi NW 8.1 mph - N/A   Clear
9:53 PM 53.1 °F 27.0 °F 37% 29.91 in 10.0 mi NNW 6.9 mph - N/A   Clear
10:53 PM 51.1 °F 28.9 °F 43% 29.94 in 10.0 mi NW 5.8 mph - N/A   Clear
11:53 PM 48.9 °F 30.9 °F 50% 29.96 in 10.0 mi NNW 5.8 mph - N/A   Clear